Location: Pinawa
(50.1500°N, 95.8830°W)
Time: 18:48:07
(UTC-05:00)

Daily predictions for brighter satellites

Satellite Brightness Start Highest point End
(mag) Time Altitude Azimuth Time Altitude Azimuth Time Altitude Azimuth
IDEFIX/ARIANE 42P 3.8 19:28:17 10° S 19:33:20 48° W 19:38:26 10° NNW
Cosmos 1943 Rocket 3.6 19:30:30 10° N 19:34:43 21° NE 19:38:55 10° E
Aureole 2 Rocket 2.9 19:31:08 10° SSW 19:35:27 66° ESE 19:39:37 10° NNE
Intercosmos 25 Rocket 4.2 19:29:28 10° S 19:35:57 82° W 19:40:00 10° N
Cosmos 1812 Rocket 4.4 19:32:07 10° SSW 19:36:24 56° WNW 19:40:44 10° N
Cosmos 1766 Rocket 3.7 19:32:05 10° N 19:36:25 55° ENE 19:40:40 10° SSE
Cosmos 1076 Rocket 3.5 19:32:09 10° N 19:36:29 65° ENE 19:40:48 10° SSE
Cosmos 1707 4.4 19:34:20 10° NNW 19:37:58 39° W 19:41:34 10° SSW
Cosmos 2369 Rocket 2.9 19:33:48 10° NNW 19:39:01 36° NE 19:44:14 10° ESE
ATLAS CENTAUR R/B 4.3 19:36:51 10° WNW 19:39:29 16° WSW 19:42:00 10° SSW
Cosmos 1953 3.0 19:38:05 10° SSE 19:41:36 31° E 19:45:09 10° NNE
NOAA 12 4.1 19:39:23 10° SSE 19:44:38 75° ENE 19:49:57 10° NNW
SAR-Lupe-1 4.0 19:42:59 10° SSE 19:46:33 87° ENE 19:50:09 10° NNW
Meteor 1-22 Rocket 4.0 19:42:17 10° S 19:47:35 81° E 19:52:55 10° NNE
Meteor 1-24 Rocket 4.3 19:42:29 10° NNW 19:48:05 62° W 19:53:27 10° S
Cosmos-2242 3.6 19:45:54 10° SSE 19:49:54 36° E 19:53:57 10° NNE
NOSS 3-2 (A) 3.6 19:45:19 10° SSW 19:51:24 67° SE 19:58:08 10° NE
Cosmos 1603 4.3 19:46:18 10° S 19:51:26 35° ESE 19:56:37 10° NE
Cosmos 1452 Rocket 3.7 19:48:02 10° NNW 19:53:20 78° WSW 19:58:34 10° SSE
Cosmos 1470 4.0 19:55:49 10° SE 19:58:42 20° E 20:01:35 10° NE
USA 238 DEB 4.2 19:52:23 10° WSW 19:59:24 66° NW 20:06:26 10° NE
USA 238 4.2 19:52:28 10° SW 19:59:29 67° NW 20:06:32 10° NE
In-Cosmos 22 4.3 19:54:23 10° NNW 20:00:13 90° WNW 20:05:59 10° S
Cosmos 1674 3.3 19:57:54 10° N 20:01:32 36° ENE 20:05:09 10° SE
ASTEX 1 4.2 19:57:39 10° NNE 20:01:57 29° E 20:06:12 10° SE
Spot 1 4.1 20:00:46 10° SSE 20:05:23 86° ENE 20:09:47 10° NNW
Cosmos 2034 Rocket 4.0 19:59:56 10° S 20:06:08 65° E 20:12:26 10° NNE
Cosmos 1464 Rocket 4.0 20:00:20 10° S 20:06:34 83° E 20:12:46 10° N
SKYMED 2 4.3 20:02:39 10° N 20:06:57 59° WNW 20:11:13 10° SSW
Cosmos 1408 Rocket 3.9 20:03:52 10° NNW 20:08:13 70° W 20:12:30 10° S
Cosmos 2333 Rocket 3.7 20:02:56 10° WSW 20:08:18 38° NW 20:13:42 10° NNE
Cosmos 1500 Rocket 3.9 20:04:42 10° N 20:08:59 45° ENE 20:13:15 10° SSE
SJ-6B 3.6 20:06:42 10° S 20:10:40 57° W 20:14:45 10° NNW
Cosmos 1420 Rocket 4.1 20:08:07 10° NNW 20:13:27 89° WSW 20:18:47 10° SSE
Cosmos 1842 Rocket 4.2 20:10:22 10° SSE 20:14:14 32° E 20:18:07 10° NNE
CZ-4C R/B 3.2 20:09:55 10° WSW 20:15:21 49° NW 20:21:34 10° NE
CENTAUR R/B 3.3 20:15:06 10° S 20:20:15 28° ESE 20:25:53 10° ENE
Cosmos 482 Debris 3.6 20:18:19 10° WNW 20:20:27 53° N 20:21:58 23° ENE
ATLAS 5 CENTAUR R/B 1.8 20:16:28 10° SSW 20:21:19 74° SE 20:26:39 10° NE
ERBS 3.0 20:18:01 10° NW 20:21:25 45° NNE 20:23:13 23° E
Cosmos 724 4.4 20:16:07 10° SSW 20:21:58 60° ESE 20:28:00 10° NE
FengYun 1-2 T 4.2 20:19:10 10° SSE 20:24:41 86° ENE 20:30:12 10° NNW
Cosmos 1758 3.3 20:21:18 10° S 20:25:24 89° W 20:29:34 10° N
Cosmos 2237 Rocket 3.9 20:21:10 10° WSW 20:26:18 34° NW 20:31:28 10° NNE
ALOS 2.2 20:22:22 10° SSE 20:27:01 69° ENE 20:31:40 10° N
ISS -1.6 20:25:30 10° S 20:27:25 18° SSE 20:27:25 18° SSE
Helios 1A 3.2 20:25:07 10° S 20:29:19 73° WSW 20:33:34 10° NNW
USA 186 2.4 20:30:06 25° NE 20:30:06 25° NE 20:31:39 10° N
NOSS 3-2 (C) 3.5 20:24:52 10° SW 20:31:05 89° SE 20:37:59 10° NE
Spot 2 Rocket 3.9 20:28:11 10° S 20:33:11 64° WSW 20:38:13 10° NNW
Cosmos 1544 3.0 20:29:54 10° S 20:33:38 79° E 20:37:24 10° NNE
Cosmos 1048 Rocket 4.0 20:31:58 10° S 20:37:07 55° ESE 20:42:14 10° NNE
Cosmos 1743 Rocket 3.8 20:33:49 10° NNW 20:38:16 71° W 20:42:39 10° S
Resurs 1-3 3.9 20:35:20 10° S 20:39:42 67° WSW 20:44:06 10° NNW
Cosmos 1269 Rocket 3.9 20:35:01 10° S 20:40:14 67° ESE 20:45:30 10° NNE
SL-8 R/B 4.5 20:36:48 10° SW 20:41:04 33° SSE 20:42:21 28° ESE
Envisat 3.8 20:42:35 27° E 20:44:09 33° ENE 20:48:39 10° N
Resurs 01 Rocket 2.7 20:41:18 10° S 20:45:35 47° W 20:49:55 10° NNW
Cosmos 1328 3.8 20:42:11 10° N 20:46:07 57° ENE 20:47:47 31° SE
SL-16 R/B 3.3 20:42:21 10° SW 20:47:48 45° NW 20:53:18 10° NNE
SL-14 R/B 3.7 20:48:03 10° N 20:51:55 42° ENE 20:52:22 40° E
CZ-2D R/B 3.3 20:50:59 15° S 20:54:07 79° WSW 20:58:02 10° NNW
Cosmos 158 Rocket 4.0 20:50:41 10° S 20:55:21 47° ESE 21:00:02 10° NE
Sich 1 4.1 20:52:06 10° N 20:55:34 28° ENE 20:55:34 28° ENE
Cosmos 1939 Rocket 3.6 20:57:02 34° ENE 20:57:02 34° ENE 21:00:31 10° N
Helios 1B rocket 2.9 20:53:30 10° N 20:57:35 63° WNW 21:01:39 10° SSW
USA 215 3.4 20:53:08 17° ENE 20:58:11 52° SE 21:04:32 10° SSW
FENGYUN 3A 3.9 20:53:33 10° S 20:58:55 69° WSW 21:04:20 10° NNW
Abrixas 4.4 20:57:24 10° SW 20:58:48 21° SSW 20:58:48 21° SSW
H-2A R/B 4.1 21:01:02 12° NE 21:01:02 12° NE 21:02:36 10° NNE
GP-B 3.0 21:00:57 10° N 21:05:26 76° E 21:08:06 24° S
H-2A R/B 3.3 21:03:23 17° S 21:06:19 59° W 21:10:09 10° NNW
CZ-4B DEB 4.2 21:05:05 14° SSW 21:07:32 38° W 21:10:39 10° NNW
Cosmos 2279 Rocket 4.1 21:09:41 29° SSE 21:12:29 49° E 21:18:26 10° NNE
Meteor 1-29 4.2 21:09:29 10° N 21:12:50 43° WNW 21:16:10 10° SW
Cosmos 1092 Rocket 4.5 21:09:13 10° NNW 21:15:21 60° W 21:21:23 10° S
ERS-1 Rocket 2.9 21:15:36 48° SE 21:16:50 65° ENE 21:21:50 10° N
Terra 4.1 21:19:19 11° NE 21:19:19 11° NE 21:19:44 10° NE
SJ-11-01 4.1 21:17:55 52° SE 21:19:02 77° ENE 21:23:45 10° NNW
Cosmos 1943 Rocket 2.1 21:13:44 10° NNW 21:19:25 80° ENE 21:21:10 46° SE
Cosmos 1805 Rocket 3.4 21:16:19 10° N 21:20:46 70° E 21:21:00 68° ESE
ATLAS 3B R/B 4.4 21:14:29 10° WNW 21:20:54 30° NNW 21:27:05 10° NE
Cosmos 1655 Rocket 3.9 21:15:40 10° N 21:21:56 85° E 21:25:30 27° SSE
H-2A R/B 3.1 21:23:11 34° NE 21:23:11 34° NE 21:26:35 10° N
Cosmos 2369 Rocket 3.0 21:17:48 10° NW 21:23:14 48° WSW 21:27:10 18° S
Gbstr 26 Del rocket 4.0 21:18:50 10° SSW 21:22:26 39° S 21:22:26 39° S
Cosmos 2058 2.8 21:19:36 10° N 21:23:45 86° W 21:24:08 73° S
Cosmos 1110 Rocket 4.2 21:18:53 10° NNW 21:24:11 72° WSW 21:26:25 35° S
Cosmos 2266 Rocket 4.4 21:19:07 10° N 21:25:07 41° ENE 21:25:36 40° E
Cosmos 2151 3.5 21:22:50 10° NNW 21:26:58 55° W 21:28:44 31° SSW
Cosmos 2026 Rocket 4.0 21:21:23 10° N 21:27:31 82° W 21:31:32 23° S
Cosmos 1943 3.0 21:23:15 10° SSW 21:28:52 83° ESE 21:34:31 10° NNE
Cosmos 1428 Rocket 4.4 21:23:52 10° N 21:30:10 74° E 21:32:19 43° SSE
Aureole 3 4.1 21:25:44 10° N 21:32:12 66° ENE 21:32:57 59° ESE
Cosmos 1733 4.2 21:28:29 10° SSW 21:32:13 47° WNW 21:35:59 10° N
Cosmos 2221 3.1 21:34:05 46° NNE 21:34:05 46° NNE 21:37:11 10° NNE
Cosmos 1633 Rocket 3.6 21:28:57 10° N 21:32:17 45° NNE 21:32:17 45° NNE
Cosmos 1470 4.2 21:30:56 10° SW 21:34:35 38° WNW 21:38:14 10° N
Cosmos 1634 Rocket 4.1 21:30:03 10° SSW 21:36:17 74° WNW 21:42:29 10° N
Cosmos 1703 4.4 21:33:51 10° N 21:36:18 35° N 21:36:18 35° N
Cosmos 2251 Rocket 3.9 21:44:51 50° NE 21:44:51 50° NE 21:48:47 10° NNE
YAOGAN 11 4.2 21:44:53 69° W 21:44:53 69° W 21:49:08 10° NNW
Meteor 2-20 4.4 21:48:53 10° NNW 21:55:05 79° W 21:56:40 52° S
Meteor 2-20 Rocket 4.3 21:49:13 10° N 21:55:26 86° E 21:56:16 69° SSE
BREEZE-M DEB (TANK) 3.8 21:48:40 10° W 21:57:15 42° SSW 21:57:17 42° SSW
Cosmos 1666 Rocket 4.1 21:55:24 10° NNW 21:59:07 56° NW 21:59:07 56° NW
Meteor 2-1 Rocket 4.3 21:58:50 44° SSW 22:00:49 80° WNW 22:06:46 10° N
SPOT 5 3.7 22:02:32 40° N 22:02:32 40° N 22:05:22 10° NNW
CZ-4C R/B 4.2 22:00:22 10° WNW 22:05:24 26° N 22:10:41 11° NE
ATLAS 5 CENTAUR R/B 3.6 22:01:57 10° W 22:06:31 32° NNW 22:11:02 12° NE
Cosmos 1302 Rocket 4.4 22:04:04 10° NNW 22:09:11 57° WSW 22:09:11 57° WSW
CENTAUR R/B 2.7 22:03:55 10° SW 22:10:13 76° NW 22:17:25 10° NE
Cosmos 1697 Rocket 4.4 22:11:19 10° N 22:15:05 21° NNE 22:15:05 21° NNE
MetOp-A 4.3 22:16:40 69° NW 22:16:40 69° NW 22:21:25 10° NNW
Envisat 3.9 22:22:48 41° WSW 22:23:05 41° W 22:27:54 10° NNW
Cosmos 1656 Rocket 4.0 22:18:07 10° NNW 22:22:45 61° WNW 22:22:45 61° WNW
ARGOS 3.8 22:28:42 51° N 22:28:42 51° N 22:32:45 10° NNW
H-2A R/B 3.5 22:41:40 30° N 22:41:40 30° N 22:44:21 10° N
USA 215 3.4 22:40:32 63° NNE 22:41:24 71° NNW 22:47:54 10° WSW
SeaSat 1 4.2 22:40:47 10° NNE 22:43:07 26° N 22:43:07 26° N
Cosmos 2285 Rocket 4.5 22:47:21 10° NNW 22:52:17 56° NNW 22:52:17 56° NNW
Cosmos 1980 Rocket 4.0 22:49:56 10° NNW 22:53:11 22° NNE 22:53:11 22° NNE
Lacrosse 4 Rocket 4.2 22:51:57 10° NNW 22:53:06 14° N 22:53:06 14° N
Terra 3.9 22:58:12 22° N 22:58:12 22° N 22:59:53 10° N
H-2A R/B 4.4 23:00:19 22° NW 23:00:19 22° NW 23:02:28 10° NW
Cosmos 1943 Rocket 4.2 22:58:39 10° WNW 23:02:28 19° W 23:02:42 19° WSW
ATLAS 3B R/B 4.1 23:07:33 10° NW 23:13:48 30° NNE 23:15:11 28° NNE
SL-16 R/B 4.4 23:22:38 10° N 23:25:24 18° NNE 23:25:24 18° NNE
Cosmos 2322 Rocket 4.3 23:45:09 10° NNW 23:47:39 20° N 23:47:39 20° N
ATLAS 5 CENTAUR R/B 4.3 23:48:48 10° NW 23:52:34 21° N 23:52:34 21° N
